Time,TemperatureF,DewpointF,PressureIn,WindDirection,WindDirectionDegrees,WindSpeedMPH,WindSpeedGustMPH,Humidity,HourlyPrecipIn,Conditions,Clouds,dailyrainin,SoftwareType,DateUTC
2013-03-16 00:04:00,54.1,47.7,29.67,North,6,0.0,0.0,79,0.00,,SKC,0.00,VWS V12.07,2013-03-16 05:04:00,
2013-03-16 00:12:00,53.7,47.7,29.66,North,6,0.0,0.0,80,0.00,,SKC,0.00,VWS V12.07,2013-03-16 05:12:00,
2013-03-16 00:19:00,53.8,47.8,29.66,North,6,0.0,0.0,80,0.00,,SKC,0.00,VWS V12.07,2013-03-16 05:19:00,
2013-03-16 00:27:00,53.6,47.6,29.65,NNE,27,0.0,0.0,80,0.00,,SKC,0.00,VWS V12.07,2013-03-16 05:27:00,
2013-03-16 00:34:00,53.3,47.6,29.65,SSE,162,0.0,0.0,81,0.00,,SKC,0.00,VWS V12.07,2013-03-16 05:34:00,
2013-03-16 00:44:00,53.0,47.3,29.65,North,5,0.0,3.0,81,0.00,,SKC,0.00,VWS V12.07,2013-03-16 05:44:00,
2013-03-16 00:51:00,52.8,47.1,29.65,NNE,20,0.0,3.0,81,0.00,,SKC,0.00,VWS V12.07,2013-03-16 05:51:00,
2013-03-16 00:59:00,52.6,46.9,29.65,NNE,33,0.0,3.0,81,0.00,,SKC,0.00,VWS V12.07,2013-03-16 05:59:00,
2013-03-16 01:07:00,52.4,46.8,29.65,NNE,33,0.0,1.0,81,0.00,,SKC,0.00,VWS V12.07,2013-03-16 06:07:00,
2013-03-16 01:14:00,52.2,46.5,29.65,NNE,33,0.0,1.0,81,0.00,,SKC,0.00,VWS V12.07,2013-03-16 06:14:00,
2013-03-16 01:23:00,52.0,46.7,29.64,NNE,33,0.0,1.0,82,0.00,,SKC,0.00,VWS V12.07,2013-03-16 06:23:00,
2013-03-16 01:30:00,51.9,46.6,29.65,NNW,328,0.0,0.0,82,0.00,,SKC,0.00,VWS V12.07,2013-03-16 06:30:00,
2013-03-16 01:39:00,51.6,46.3,29.65,NNE,25,1.0,3.0,82,0.00,,SKC,0.00,VWS V12.07,2013-03-16 06:39:00,
2013-03-16 01:46:00,51.0,45.7,29.66,NNE,12,3.0,7.0,82,0.00,,SKC,0.00,VWS V12.07,2013-03-16 06:46:00,
2013-03-16 01:51:00,50.6,45.6,29.66,NNE,17,8.0,9.0,83,0.00,,SKC,0.00,VWS V12.07,2013-03-16 06:51:00,
2013-03-16 01:58:00,50.0,45.0,29.67,NNW,347,7.0,10.0,83,0.00,,SKC,0.00,VWS V12.07,2013-03-16 06:58:00,
2013-03-16 02:04:00,49.4,44.8,29.67,ENE,58,4.0,10.0,84,0.00,,SKC,0.00,VWS V12.07,2013-03-16 07:04:00,
2013-03-16 02:11:00,48.8,44.2,29.67,North,8,1.0,11.0,84,0.00,,SKC,0.00,VWS V12.07,2013-03-16 07:11:00,
2013-03-16 02:18:00,48.2,43.9,29.68,NW,312,3.0,11.0,85,0.00,,SKC,0.00,VWS V12.07,2013-03-16 07:18:00,
2013-03-16 02:23:00,47.9,43.6,29.68,North,11,3.0,11.0,85,0.00,,SKC,0.00,VWS V12.07,2013-03-16 07:23:00,
2013-03-16 02:31:00,47.5,43.2,29.68,NW,312,5.0,6.0,85,0.00,,SKC,0.00,VWS V12.07,2013-03-16 07:31:00,
2013-03-16 02:39:00,47.0,42.7,29.69,NW,319,3.0,10.0,85,0.00,,SKC,0.00,VWS V12.07,2013-03-16 07:39:00,
2013-03-16 02:44:00,46.7,42.4,29.70,NNE,16,4.0,11.0,85,0.00,,SKC,0.00,VWS V12.07,2013-03-16 07:44:00,
2013-03-16 02:50:00,46.3,42.3,29.70,NNE,26,3.0,11.0,86,0.00,,SKC,0.00,VWS V12.07,2013-03-16 07:50:00,
2013-03-16 02:59:00,46.0,41.8,29.70,NNW,327,2.0,13.0,85,0.00,,SKC,0.00,VWS V12.07,2013-03-16 07:59:00,
2013-03-16 03:06:00,45.6,41.4,29.70,North,359,5.0,8.0,85,0.00,,SKC,0.00,VWS V12.07,2013-03-16 08:06:00,
2013-03-16 03:14:00,45.4,41.5,29.71,NNW,327,0.0,8.0,86,0.00,,SKC,0.00,VWS V12.07,2013-03-16 08:14:00,
2013-03-16 03:24:00,45.1,41.2,29.72,NE,56,0.0,8.0,86,0.00,,SKC,0.00,VWS V12.07,2013-03-16 08:24:00,
2013-03-16 03:30:00,44.8,40.9,29.72,NW,321,4.0,8.0,86,0.00,,SKC,0.00,VWS V12.07,2013-03-16 08:30:00,
2013-03-16 03:39:00,44.7,40.8,29.72,NW,323,2.0,6.0,86,0.00,,SKC,0.00,VWS V12.07,2013-03-16 08:39:00,
2013-03-16 03:44:00,44.6,40.7,29.73,NW,321,1.0,8.0,86,0.00,,SKC,0.00,VWS V12.07,2013-03-16 08:44:00,
2013-03-16 03:54:00,44.3,40.4,29.73,NNW,336,0.0,8.0,86,0.00,,SKC,0.00,VWS V12.07,2013-03-16 08:54:00,
2013-03-16 04:03:00,43.9,40.3,29.73,North,351,0.0,3.0,87,0.00,,SKC,0.00,VWS V12.07,2013-03-16 09:03:00,
2013-03-16 04:10:00,43.5,39.9,29.73,North,358,4.0,5.0,87,0.00,,SKC,0.00,VWS V12.07,2013-03-16 09:10:00,
2013-03-16 04:18:00,43.2,39.9,29.73,NW,316,3.0,5.0,88,0.00,,SKC,0.00,VWS V12.07,2013-03-16 09:18:00,
2013-03-16 04:23:00,43.1,39.8,29.74,NW,313,0.0,6.0,88,0.00,,SKC,0.00,VWS V12.07,2013-03-16 09:23:00,
2013-03-16 04:30:00,42.9,39.6,29.74,WNW,302,1.0,6.0,88,0.00,,SKC,0.00,VWS V12.07,2013-03-16 09:30:00,
2013-03-16 04:38:00,42.5,39.2,29.74,NW,325,4.0,4.0,88,0.00,,SKC,0.00,VWS V12.07,2013-03-16 09:38:00,
2013-03-16 04:44:00,42.3,39.3,29.74,North,357,1.0,4.0,89,0.00,,SKC,0.00,VWS V12.07,2013-03-16 09:44:00,
2013-03-16 04:51:00,41.9,38.9,29.75,WNW,289,0.0,4.0,89,0.00,,SKC,0.00,VWS V12.07,2013-03-16 09:51:00,
2013-03-16 04:58:00,41.6,38.9,29.76,North,349,1.0,5.0,90,0.00,,SKC,0.00,VWS V12.07,2013-03-16 09:58:00,
2013-03-16 05:04:00,41.4,38.7,29.76,North,356,0.0,6.0,90,0.00,,SKC,0.00,VWS V12.07,2013-03-16 10:04:00,
2013-03-16 05:11:00,41.2,38.5,29.76,NW,308,1.0,6.0,90,0.00,,SKC,0.00,VWS V12.07,2013-03-16 10:11:00,
2013-03-16 05:19:00,40.9,38.2,29.76,NNE,25,3.0,6.0,90,0.00,,SKC,0.00,VWS V12.07,2013-03-16 10:19:00,
2013-03-16 05:26:00,40.7,38.3,29.77,NNW,331,2.0,6.0,91,0.00,,SKC,0.00,VWS V12.07,2013-03-16 10:26:00,
2013-03-16 05:35:00,40.4,38.0,29.77,North,350,3.0,8.0,91,0.00,,SKC,0.00,VWS V12.07,2013-03-16 10:35:00,
2013-03-16 05:44:00,40.2,37.8,29.78,NNE,22,0.0,8.0,91,0.00,,SKC,0.00,VWS V12.07,2013-03-16 10:44:00,
2013-03-16 05:51:00,40.0,37.6,29.79,NNE,19,2.0,8.0,91,0.00,,SKC,0.00,VWS V12.07,2013-03-16 10:51:00,
2013-03-16 05:56:00,39.9,37.5,29.79,NW,309,5.0,10.0,91,0.00,,SKC,0.00,VWS V12.07,2013-03-16 10:56:00,
2013-03-16 06:01:00,39.8,37.4,29.81,NNW,330,3.0,6.0,91,0.00,,SKC,0.00,VWS V12.07,2013-03-16 11:01:00,
2013-03-16 06:07:00,39.9,37.5,29.81,NW,319,4.0,10.0,91,0.00,,SKC,0.00,VWS V12.07,2013-03-16 11:07:00,
2013-03-16 06:14:00,39.8,37.4,29.82,NNE,26,11.0,13.0,91,0.00,,SKC,0.00,VWS V12.07,2013-03-16 11:14:00,
2013-03-16 06:23:00,39.7,37.3,29.83,NW,314,3.0,13.0,91,0.00,,SKC,0.00,VWS V12.07,2013-03-16 11:23:00,
2013-03-16 06:31:00,39.6,37.2,29.83,NW,322,4.0,6.0,91,0.00,,SKC,0.00,VWS V12.07,2013-03-16 11:31:00,
2013-03-16 06:38:00,39.2,36.5,29.85,NNE,19,8.0,10.0,90,0.00,,SKC,0.00,VWS V12.07,2013-03-16 11:38:00,
2013-03-16 06:46:00,38.9,36.5,29.85,NNW,336,2.0,11.0,91,0.00,,SKC,0.00,VWS V12.07,2013-03-16 11:46:00,
2013-03-16 06:51:00,38.8,36.4,29.86,WNW,297,0.0,11.0,91,0.00,,SKC,0.00,VWS V12.07,2013-03-16 11:51:00,
2013-03-16 06:59:00,38.8,36.4,29.87,NNW,329,1.0,11.0,91,0.00,,SKC,0.00,VWS V12.07,2013-03-16 11:59:00,
2013-03-16 07:04:00,38.8,36.4,29.87,NW,314,4.0,7.0,91,0.00,,SKC,0.00,VWS V12.07,2013-03-16 12:04:00,
2013-03-16 07:11:00,38.7,36.0,29.88,NNE,30,4.0,7.0,90,0.00,,SKC,0.00,VWS V12.07,2013-03-16 12:11:00,
2013-03-16 07:19:00,38.7,36.0,29.89,North,355,5.0,13.0,90,0.00,,SKC,0.00,VWS V12.07,2013-03-16 12:19:00,
2013-03-16 07:26:00,38.7,36.0,29.90,WNW,298,2.0,13.0,90,0.00,,SKC,0.00,VWS V12.07,2013-03-16 12:26:00,
2013-03-16 07:34:00,38.7,36.0,29.90,NE,43,5.0,10.0,90,0.00,,SKC,0.00,VWS V12.07,2013-03-16 12:34:00,
2013-03-16 07:43:00,38.7,36.0,29.91,NNW,328,2.0,11.0,90,0.00,,SKC,0.00,VWS V12.07,2013-03-16 12:43:00,
2013-03-16 07:44:00,38.7,36.0,29.91,North,9,6.0,13.0,90,0.00,,SKC,0.00,VWS V12.07,2013-03-16 12:44:00,
2013-03-16 07:51:00,38.7,36.0,29.91,North,9,6.0,13.0,90,0.00,,SKC,0.00,VWS V12.07,2013-03-16 12:51:00,
2013-03-16 12:50:00,41.3,35.3,30.04,NE,37,1.0,9.0,79,0.00,,SKC,0.00,VWS V12.07,2013-03-16 17:50:00,
2013-03-16 12:59:00,41.3,35.3,30.04,NNE,27,7.0,11.0,79,0.00,,SKC,0.00,VWS V12.07,2013-03-16 17:59:00,
2013-03-16 13:07:00,41.2,34.9,30.04,North,6,3.0,10.0,78,0.00,,SKC,0.00,VWS V12.07,2013-03-16 18:07:00,
2013-03-16 13:15:00,41.5,35.2,30.04,North,5,4.0,10.0,78,0.00,,SKC,0.00,VWS V12.07,2013-03-16 18:15:00,
2013-03-16 13:23:00,41.6,34.9,30.05,NE,45,5.0,11.0,77,0.00,,SKC,0.00,VWS V12.07,2013-03-16 18:23:00,
2013-03-16 13:30:00,41.6,35.3,30.05,North,5,3.0,11.0,78,0.00,,SKC,0.00,VWS V12.07,2013-03-16 18:30:00,
2013-03-16 13:38:00,41.5,35.2,30.05,NNW,345,7.0,8.0,78,0.00,,SKC,0.00,VWS V12.07,2013-03-16 18:38:00,
2013-03-16 13:43:00,41.6,34.9,30.05,NNE,22,7.0,10.0,77,0.00,,SKC,0.00,VWS V12.07,2013-03-16 18:43:00,
2013-03-16 13:50:00,41.7,34.7,30.05,North,4,3.0,11.0,76,0.00,,SKC,0.00,VWS V12.07,2013-03-16 18:50:00,
2013-03-16 13:56:00,41.6,34.6,30.06,NE,41,5.0,11.0,76,0.00,,SKC,0.00,VWS V12.07,2013-03-16 18:56:00,
2013-03-16 14:03:00,41.4,34.7,30.06,North,351,9.0,9.0,77,0.00,,SKC,0.00,VWS V12.07,2013-03-16 19:03:00,
2013-03-16 14:10:00,41.4,34.7,30.05,NE,56,10.0,12.0,77,0.00,,SKC,0.00,VWS V12.07,2013-03-16 19:10:00,
2013-03-16 14:17:00,41.4,34.7,30.05,NE,47,2.0,12.0,77,0.00,,SKC,0.00,VWS V12.07,2013-03-16 19:17:00,
2013-03-16 14:24:00,41.5,34.5,30.05,NE,44,7.0,13.0,76,0.00,,SKC,0.00,VWS V12.07,2013-03-16 19:24:00,
2013-03-16 14:33:00,41.5,34.5,30.05,NNW,328,2.0,8.0,76,0.00,,SKC,0.00,VWS V12.07,2013-03-16 19:33:00,
2013-03-16 14:40:00,41.2,34.2,30.05,NNE,15,5.0,9.0,76,0.00,,SKC,0.00,VWS V12.07,2013-03-16 19:40:00,
2013-03-16 14:48:00,40.8,34.2,30.04,North,357,9.0,9.0,77,0.00,,SKC,0.00,VWS V12.07,2013-03-16 19:48:00,
2013-03-16 14:56:00,40.9,33.9,30.03,North,360,4.0,9.0,76,0.00,,SKC,0.00,VWS V12.07,2013-03-16 19:56:00,
2013-03-16 15:04:00,40.9,33.9,30.03,NW,325,2.0,8.0,76,0.00,,SKC,0.00,VWS V12.07,2013-03-16 20:04:00,
2013-03-16 15:13:00,40.8,33.8,30.04,ENE,71,1.0,11.0,76,0.00,,SKC,0.00,VWS V12.07,2013-03-16 20:13:00,
2013-03-16 15:20:00,40.8,34.2,30.04,NNE,30,2.0,11.0,77,0.00,,SKC,0.00,VWS V12.07,2013-03-16 20:20:00,
2013-03-16 15:28:00,40.6,33.6,30.04,NNE,12,5.0,11.0,76,0.00,,SKC,0.00,VWS V12.07,2013-03-16 20:28:00,
2013-03-16 15:34:00,40.5,33.9,30.04,NE,44,8.0,8.0,77,0.00,,SKC,0.00,VWS V12.07,2013-03-16 20:34:00,
2013-03-16 15:40:00,40.5,33.9,30.05,ENE,61,3.0,8.0,77,0.00,,SKC,0.00,VWS V12.07,2013-03-16 20:40:00,
2013-03-16 15:47:00,40.5,33.9,30.05,ENE,58,3.0,8.0,77,0.00,,SKC,0.00,VWS V12.07,2013-03-16 20:47:00,
2013-03-16 15:54:00,40.5,33.9,30.05,NE,35,2.0,8.0,77,0.00,,SKC,0.00,VWS V12.07,2013-03-16 20:54:00,
2013-03-16 16:03:00,40.6,33.6,30.05,NE,49,7.0,9.0,76,0.00,,SKC,0.00,VWS V12.07,2013-03-16 21:03:00,
2013-03-16 16:11:00,40.4,33.8,30.06,ENE,63,3.0,9.0,77,0.00,,SKC,0.00,VWS V12.07,2013-03-16 21:11:00,
2013-03-16 16:19:00,40.4,33.5,30.05,NNE,13,3.0,9.0,76,0.00,,SKC,0.00,VWS V12.07,2013-03-16 21:19:00,
2013-03-16 16:26:00,40.4,33.5,30.05,NNW,334,2.0,10.0,76,0.00,,SKC,0.00,VWS V12.07,2013-03-16 21:26:00,
2013-03-16 16:31:00,40.4,33.5,30.06,NNE,23,3.0,5.0,76,0.00,,SKC,0.00,VWS V12.07,2013-03-16 21:31:00,
2013-03-16 16:36:00,40.4,33.5,30.06,NE,36,6.0,7.0,76,0.00,,SKC,0.00,VWS V12.07,2013-03-16 21:36:00,
2013-03-16 16:44:00,40.3,33.3,30.06,North,1,4.0,8.0,76,0.00,,SKC,0.00,VWS V12.07,2013-03-16 21:44:00,
2013-03-16 16:54:00,40.2,33.6,30.06,North,354,3.0,8.0,77,0.00,,SKC,0.00,VWS V12.07,2013-03-16 21:54:00,
2013-03-16 17:01:00,40.1,33.5,30.06,NNW,335,3.0,3.0,77,0.00,,SKC,0.00,VWS V12.07,2013-03-16 22:01:00,
2013-03-16 17:08:00,40.0,33.4,30.06,NNE,26,3.0,8.0,77,0.00,,SKC,0.00,VWS V12.07,2013-03-16 22:08:00,
2013-03-16 17:13:00,39.9,33.3,30.06,NNE,19,2.0,8.0,77,0.00,,SKC,0.00,VWS V12.07,2013-03-16 22:13:00,
2013-03-16 17:20:00,39.9,33.3,30.06,NNW,330,5.0,8.0,77,0.00,,SKC,0.00,VWS V12.07,2013-03-16 22:20:00,
2013-03-16 17:28:00,39.9,33.3,30.07,NNE,15,6.0,8.0,77,0.00,,SKC,0.00,VWS V12.07,2013-03-16 22:28:00,
2013-03-16 17:36:00,39.7,33.1,30.07,NNW,345,1.0,8.0,77,0.00,,SKC,0.00,VWS V12.07,2013-03-16 22:36:00,
2013-03-16 17:44:00,39.6,33.0,30.07,NNW,330,3.0,8.0,77,0.00,,SKC,0.00,VWS V12.07,2013-03-16 22:44:00,
2013-03-16 17:53:00,39.5,33.2,30.06,North,8,3.0,8.0,78,0.00,,SKC,0.00,VWS V12.07,2013-03-16 22:53:00,
2013-03-16 18:00:00,39.5,33.2,30.07,NNW,338,2.0,2.0,78,0.00,,SKC,0.00,VWS V12.07,2013-03-16 23:00:00,
2013-03-16 18:08:00,39.3,33.0,30.07,East,81,1.0,7.0,78,0.00,,SKC,0.00,VWS V12.07,2013-03-16 23:08:00,
2013-03-16 18:13:00,39.2,32.9,30.06,NE,34,4.0,7.0,78,0.00,,SKC,0.00,VWS V12.07,2013-03-16 23:13:00,
2013-03-16 18:20:00,39.1,32.8,30.06,NW,305,3.0,8.0,78,0.00,,SKC,0.00,VWS V12.07,2013-03-16 23:20:00,
2013-03-16 18:28:00,39.1,32.8,30.07,NNW,335,1.0,8.0,78,0.00,,SKC,0.00,VWS V12.07,2013-03-16 23:28:00,
2013-03-16 18:34:00,39.1,32.8,30.07,NE,34,4.0,4.0,78,0.00,,SKC,0.00,VWS V12.07,2013-03-16 23:34:00,
2013-03-16 18:41:00,39.1,33.2,30.07,NNE,21,0.0,4.0,79,0.00,,SKC,0.00,VWS V12.07,2013-03-16 23:41:00,
2013-03-16 18:48:00,39.0,32.7,30.07,NNW,340,0.0,6.0,78,0.00,,SKC,0.00,VWS V12.07,2013-03-16 23:48:00,
2013-03-16 18:56:00,38.9,32.6,30.07,North,354,0.0,6.0,78,0.00,,SKC,0.00,VWS V12.07,2013-03-16 23:56:00,
2013-03-16 19:04:00,38.9,33.0,30.08,North,10,0.0,4.0,79,0.00,,SKC,0.00,VWS V12.07,2013-03-17 00:04:00,
2013-03-16 19:14:00,38.8,32.9,30.07,NE,55,2.0,7.0,79,0.00,,SKC,0.00,VWS V12.07,2013-03-17 00:14:00,
2013-03-16 19:20:00,38.7,32.8,30.08,East,84,0.0,7.0,79,0.00,,SKC,0.00,VWS V12.07,2013-03-17 00:20:00,
2013-03-16 19:28:00,38.7,32.8,30.08,NE,43,0.0,7.0,79,0.00,,SKC,0.00,VWS V12.07,2013-03-17 00:28:00,
2013-03-16 19:36:00,38.7,32.8,30.08,NNE,18,2.0,4.0,79,0.00,,SKC,0.00,VWS V12.07,2013-03-17 00:36:00,
2013-03-16 19:44:00,38.6,32.7,30.08,North,8,4.0,5.0,79,0.00,,SKC,0.00,VWS V12.07,2013-03-17 00:44:00,
2013-03-16 19:53:00,38.6,32.7,30.09,North,353,1.0,6.0,79,0.00,,SKC,0.00,VWS V12.07,2013-03-17 00:53:00,
2013-03-16 20:00:00,38.6,32.7,30.09,NNW,339,0.0,6.0,79,0.00,,SKC,0.00,VWS V12.07,2013-03-17 01:00:00,
2013-03-16 20:09:00,38.5,32.9,30.09,NE,47,5.0,5.0,80,0.00,,SKC,0.00,VWS V12.07,2013-03-17 01:09:00,
2013-03-16 20:16:00,38.5,32.6,30.10,NE,49,2.0,5.0,79,0.00,,SKC,0.00,VWS V12.07,2013-03-17 01:16:00,
2013-03-16 20:21:00,38.5,32.9,30.10,NE,36,2.0,5.0,80,0.00,,SKC,0.00,VWS V12.07,2013-03-17 01:21:00,
2013-03-16 20:26:00,38.5,32.6,30.10,NNE,18,0.0,6.0,79,0.00,,SKC,0.00,VWS V12.07,2013-03-17 01:26:00,
2013-03-16 20:35:00,38.5,32.6,30.10,NNE,29,2.0,8.0,79,0.00,,SKC,0.00,VWS V12.07,2013-03-17 01:35:00,
2013-03-16 20:43:00,38.5,32.6,30.09,NW,318,3.0,8.0,79,0.00,,SKC,0.00,VWS V12.07,2013-03-17 01:43:00,
2013-03-16 20:50:00,38.5,32.6,30.10,NW,326,4.0,10.0,79,0.00,,SKC,0.00,VWS V12.07,2013-03-17 01:50:00,
2013-03-16 20:59:00,38.5,32.6,30.10,ENE,70,1.0,12.0,79,0.00,,SKC,0.00,VWS V12.07,2013-03-17 01:59:00,
2013-03-16 21:06:00,38.4,32.5,30.10,North,352,1.0,12.0,79,0.00,,SKC,0.00,VWS V12.07,2013-03-17 02:06:00,
2013-03-16 21:14:00,38.3,32.4,30.10,NE,44,6.0,12.0,79,0.00,,SKC,0.00,VWS V12.07,2013-03-17 02:14:00,
2013-03-16 21:20:00,38.1,32.2,30.10,NE,35,7.0,12.0,79,0.00,,SKC,0.00,VWS V12.07,2013-03-17 02:20:00,
2013-03-16 21:29:00,38.0,32.1,30.10,NE,53,6.0,12.0,79,0.00,,SKC,0.00,VWS V12.07,2013-03-17 02:29:00,
2013-03-16 21:36:00,37.9,32.3,30.10,ESE,117,4.0,10.0,80,0.00,,SKC,0.00,VWS V12.07,2013-03-17 02:36:00,
2013-03-16 21:44:00,37.9,32.3,30.11,NNE,27,0.0,10.0,80,0.00,,SKC,0.00,VWS V12.07,2013-03-17 02:44:00,
2013-03-16 21:54:00,37.8,32.2,30.12,ENE,61,1.0,10.0,80,0.00,,SKC,0.00,VWS V12.07,2013-03-17 02:54:00,
2013-03-16 22:01:00,37.8,32.5,30.11,NE,50,4.0,4.0,81,0.00,,SKC,0.00,VWS V12.07,2013-03-17 03:01:00,
2013-03-16 22:09:00,37.8,32.5,30.12,NE,53,0.0,6.0,81,0.00,,SKC,0.00,VWS V12.07,2013-03-17 03:09:00,
2013-03-16 22:14:00,37.7,32.4,30.11,NE,44,3.0,6.0,81,0.00,,SKC,0.00,VWS V12.07,2013-03-17 03:14:00,
2013-03-16 22:21:00,37.7,32.4,30.11,NE,49,5.0,8.0,81,0.00,,SKC,0.00,VWS V12.07,2013-03-17 03:21:00,
2013-03-16 22:29:00,37.6,32.3,30.12,NNW,328,1.0,8.0,81,0.00,,SKC,0.00,VWS V12.07,2013-03-17 03:29:00,
2013-03-16 22:34:00,37.6,32.3,30.12,ENE,65,4.0,9.0,81,0.00,,SKC,0.00,VWS V12.07,2013-03-17 03:34:00,
2013-03-16 22:41:00,37.6,32.3,30.11,NE,49,5.0,9.0,81,0.00,,SKC,0.00,VWS V12.07,2013-03-17 03:41:00,
2013-03-16 22:48:00,37.5,32.2,30.12,NW,323,1.0,9.0,81,0.00,,SKC,0.00,VWS V12.07,2013-03-17 03:48:00,
2013-03-16 22:54:00,37.5,32.2,30.12,NNE,30,5.0,9.0,81,0.00,,SKC,0.00,VWS V12.07,2013-03-17 03:54:00,
2013-03-16 23:01:00,37.5,32.2,30.12,NNE,29,1.0,2.0,81,0.00,,SKC,0.00,VWS V12.07,2013-03-17 04:01:00,
2013-03-16 23:05:00,37.4,32.1,30.12,NW,308,0.0,5.0,81,0.00,,SKC,0.00,VWS V12.07,2013-03-17 04:05:00,
2013-03-16 23:14:00,37.3,32.3,30.12,ENE,67,4.0,8.0,82,0.00,,SKC,0.00,VWS V12.07,2013-03-17 04:14:00,
2013-03-16 23:16:00,37.3,32.3,30.12,NE,44,1.0,10.0,82,0.00,,SKC,0.00,VWS V12.07,2013-03-17 04:16:00,
2013-03-16 23:24:00,37.2,32.2,30.12,NE,40,7.0,10.0,82,0.00,,SKC,0.00,VWS V12.07,2013-03-17 04:24:00,
2013-03-16 23:33:00,37.1,32.1,30.12,North,357,5.0,5.0,82,0.00,,SKC,0.00,VWS V12.07,2013-03-17 04:33:00,
2013-03-16 23:41:00,37.1,32.1,30.13,NNE,23,2.0,8.0,82,0.00,,SKC,0.00,VWS V12.07,2013-03-17 04:41:00,
2013-03-16 23:49:00,36.9,31.9,30.13,NE,51,0.0,8.0,82,0.00,,SKC,0.00,VWS V12.07,2013-03-17 04:49:00,
2013-03-16 23:57:00,36.9,32.2,30.13,NNE,16,3.0,10.0,83,0.00,,SKC,0.00,VWS V12.07,2013-03-17 04:57:00,